[[{"header":{"parameterUnit":"m.s-1","parameterCategory":1,"la1":30.2991,"la2":30.254,"lo1":-89.0895,"lo2":-89.0444,"dy":0.0017,"dx":0.0017,"nx":28,"ny":28,"refTime":"2023-08-14T21:00:00:Z","depth":0,"parameterNumber":2,"parameterNumberName":"U-component_of_WINDS"},"data":[0,0,0,0,0,0,0,0,0,0,0,0,0,0,0,0,0,0,0,0,0,0,0,0,0,0,0,0,0,0,0,0,0,0,0,0,0,0,0,0,0,0,0,0,0,0,0,0,0,0,0,0,0,0,0,0,0,0,-2.1947,-2.1948,0,-2.2086,-2.2087,-2.2089,-2.205,-2.2047,-2.2045,-2.2042,-2.2193,-2.22,-2.2207,0,0,0,0,0,0,0,0,0,0,0,0,0,-2.1654,-2.166,-2.1946,-2.1948,-2.195,-2.2086,-2.2087,-2.2089,-2.2051,-2.2047,-2.2044,-2.2041,-2.2191,-2.2199,-2.2207,0,0,0,0,0,0,0,0,0,0,0,0,0,-2.1786,-2.1662,-2.1946,-2.1947,-2.1948,-2.2085,-2.2088,-2.209,-2.2052,-2.2047,-2.2043,-2.2039,-2.2189,-2.2198,-2.2208,-2.2356,0,0,-2.2239,-2.2243,0,0,0,0,0,0,0,0,-2.1779,-2.1797,-2.1945,-2.1947,-2.1949,-2.2046,-2.204,-2.2179,-2.2053,-2.2013,-2.2042,-2.2037,-2.2149,-2.2162,-2.2197,-2.2363,-2.237,-2.224,-2.2246,-2.225,-2.2253,0,0,0,0,0,0,0,-2.177,-2.1791,-2.2002,-2.1947,-2.195,-2.1943,-2.1957,-2.2066,-2.2103,-2.2016,-2.2013,-2.203,-2.2149,-2.2188,-2.2201,-2.2372,-2.224,-2.2249,-2.2255,-2.2259,-2.2666,-2.267,0,0,0,0,0,0,-2.1758,-2.1784,-2.1997,-2.2006,-2.1851,-2.1951,-2.1967,-2.2019,-2.2102,-2.211,-2.2033,-2.2027,-2.2173,-2.2189,-2.2206,-2.2384,-2.225,-2.226,-2.2265,-2.2661,-2.2667,-2.2672,0,0,0,0,0,0,-2.1752,-2.1778,-2.1992,-2.1894,-2.1921,-2.1961,-2.202,-2.2024,-2.2063,-2.2115,-2.2122,-2.2066,-2.217,-2.2192,-2.2318,-2.2389,-2.2264,-2.2273,-2.2655,-2.2663,-2.2669,-2.2742,0,0,0,0,0,0,-2.1744,-2.1776,-2.183,-2.1895,-2.1926,-2.21,-2.2024,-2.203,-2.208,-2.2073,-2.2147,-2.2156,-2.2168,-2.2303,-2.2328,-2.24,-2.2281,-2.2649,-2.2659,-2.2667,-2.2733,-2.275,-2.2765,0,0,0,0,0,-2.1733,-2.1847,-2.1833,-2.1859,-2.1995,-2.2104,-2.2122,-2.2131,-2.2085,-2.2142,-2.2175,-2.2153,-2.2377,-2.2317,-2.2344,-2.2421,-2.2645,-2.2656,-2.2666,-2.2726,-2.2747,-2.2765,0,0,0,0,0,0,-2.1793,-2.1856,-2.1841,-2.1979,-2.2036,-2.2097,-2.2169,-2.2153,-2.2227,-2.2219,-2.223,-2.2247,-2.2377,-2.2411,-2.2343,-2.2568,-2.2504,-2.2521,-2.254,-2.2561,-2.2576,-2.2566,-2.2289,0,0,0,0,0,-2.1821,-2.1902,-2.1953,-2.207,-2.2099,-2.2129,-2.2177,-2.2179,-2.224,-2.2265,-2.2307,-2.2369,-2.2453,-2.2509,-2.2589,-2.2738,-2.2754,-2.2804,-2.282,-2.2832,-2.2847,-2.2929,-2.2951,-2.2707,-2.2707,-2.2707,0,0,-2.1882,-2.1926,-2.1977,-2.2083,-2.2127,-2.2213,-2.215,-2.2243,-2.2307,-2.228,-2.2401,-2.2434,-2.2505,-2.2643,-2.2706,-2.2676,-2.2918,-2.2846,-2.2856,-2.2864,-2.2942,-2.2965,-2.2986,-2.2715,-2.2713,-2.2712,0,0,-2.2037,-2.2078,-2.2179,-2.2224,-2.2291,-2.231,-2.2334,-2.2397,-2.2418,-2.2538,-2.252,-2.2597,-2.2742,-2.2793,-2.2837,-2.301,-2.2993,-2.3036,-2.312,-2.3199,-2.3218,-2.3235,-2.3297,-2.3319,-2.305,-2.305,-2.305,0,-2.2105,-2.223,-2.2234,-2.2328,-2.2376,-2.2351,-2.2455,-2.25,-2.2591,-2.2626,-2.259,-2.277,-2.2816,-2.2965,-2.3007,-2.3044,-2.3073,-2.3028,-2.3214,-2.3232,-2.3248,-2.3307,-2.333,-2.3055,-2.3054,-2.3054,-2.3054,0,-2.2311,-2.2398,-2.2472,-2.2557,-2.2613,-2.2712,-2.2733,-2.279,-2.2787,-2.281,-2.2934,-2.2988,-2.3078,-2.3114,-2.3113,-2.3263,-2.3242,-2.3211,-2.3147,-2.3276,-2.3331,-2.3354,-2.3062,-2.306,-2.3059,-2.3058,0,0,-2.2508,-2.2592,-2.262,-2.2657,-2.2729,-2.2798,-2.2896,-2.2981,-2.303,-2.3093,-2.3177,-2.3299,-2.3269,-2.332,-2.3325,-2.3394,-2.3527,-2.3354,-2.3356,-2.3385,-2.3697,-2.372,-2.3746,-2.3516,-2.352,-2.3524,-2.3691,0,-2.2669,-2.2839,-2.2845,-2.3001,-2.3082,-2.3059,-2.3145,-2.3199,-2.3223,-2.3298,-2.3325,-2.3412,-2.3366,-2.3396,-2.3463,-2.3497,-2.359,-2.3485,-2.3596,-2.36,-2.3579,-2.3775,-2.3801,-2.3956,-2.3713,-2.3716,-2.3719,0,-2.288,-2.2947,-2.3109,-2.3168,-2.3202,-2.3279,-2.3357,-2.3428,-2.3489,-2.3502,-2.3558,-2.3552,-2.3655,-2.3587,-2.3729,-2.3657,-2.3703,-2.3726,-2.3733,-2.3744,-2.3668,-2.3793,-2.4006,-2.4029,-2.3753,-2.3751,-2.3748,0,-2.3008,-2.3139,-2.3253,-2.3286,-2.3357,-2.3412,-2.3444,-2.3501,-2.3552,-2.3621,-2.3654,-2.3736,-2.3781,-2.3845,-2.3863,-2.3811,-2.4005,-2.3939,-2.402,-2.402,-2.4063,-2.406,-2.4287,-2.4092,-2.4091,-2.4091,-2.409,0,-2.3188,-2.3289,-2.3311,-2.3382,-2.3494,-2.3501,-2.3613,-2.3642,-2.3693,-2.377,-2.3756,-2.383,-2.3848,-2.3925,-2.394,-2.4056,-2.4076,-2.4091,-2.4094,-2.4092,-2.4091,-2.4123,-2.4113,-2.4097,-2.4096,-2.4094,-2.4093,0,-2.3351,-2.337,-2.3492,-2.3548,-2.3565,-2.3646,-2.3695,-2.3763,-2.3785,-2.3883,-2.3906,-2.3941,-2.4031,-2.4054,-2.4164,-2.4173,-2.431,-2.4302,-2.4288,-2.4288,-2.4368,-2.436,-2.4624,-2.4659,-2.4441,-2.4443,-2.4445,0,-2.3465,-2.3541,-2.3604,-2.3653,-2.3687,-2.3767,-2.3818,-2.3827,-2.3881,-2.3956,-2.4016,-2.4104,-2.4174,-2.432,-2.4357,-2.444,-2.4435,-2.4522,-2.4448,-2.4443,-2.4437,-2.4432,-2.4439,-2.4536,-2.4538,-2.454,-2.4542,0,-2.3665,-2.367,-2.3741,-2.3816,-2.3876,-2.3937,-2.3994,-2.4036,-2.4054,-2.4116,-2.4205,-2.426,-2.4369,-2.4457,-2.4541,-2.4577,-2.4564,-2.4564,-2.4588,-2.4587,-2.4576,-2.4583,-2.4327,-2.4559,-2.4557,-2.4556,-2.4555,-2.4554,-2.3807,-2.3873,-2.3927,-2.4008,-2.4051,-2.4105,-2.4172,-2.42,-2.4274,-2.4362,-2.4364,-2.4462,-2.4522,-2.4632,-2.4673,-2.4751,-2.4725,-2.4759,-2.4768,-2.4776,-2.4783,-2.4562,-2.4767,-2.4766,-2.4766,-2.4765,-2.4765,0,-2.4006,-2.4039,-2.4113,-2.4192,-2.4256,-2.4233,-2.4296,-2.4351,-2.4437,-2.4492,-2.4561,-2.4664,-2.4749,-2.4792,-2.4876,-2.4931,-2.4927,-2.4953,-2.4949,-2.4958,-2.4801,-2.4772,-2.4955,-2.4955,-2.4955,-2.4954,-2.4954,-2.4954,-2.4117,-2.4228,-2.4239,-2.4372,-2.4405,-2.4499,-2.4536,-2.4587,-2.463,-2.4745,-2.4814,-2.484,-2.4891,-2.4978,-2.5056,-2.5066,-2.5098,-2.5128,-2.5135,-2.4988,-2.4969,-2.4951,-2.4924,-2.5134,-2.5135,-2.5285,-2.5286,-2.5287]},{"header":{"parameterUnit":"m.s-1","parameterCategory":1,"la1":30.2991,"la2":30.254,"lo1":-89.0895,"lo2":-89.0444,"dy":0.0017,"dx":0.0017,"nx":28,"ny":28,"refTime":"2023-08-14T21:00:00:Z","depth":0,"parameterNumber":3,"parameterNumberName":"V-component_of_WINDS"},"data":[0,0,0,0,0,0,0,0,0,0,0,0,0,0,0,0,0,0,0,0,0,0,0,0,0,0,0,0,0,0,0,0,0,0,0,0,0,0,0,0,0,0,0,0,0,0,0,0,0,0,0,0,0,0,0,0,0,0,-5.6231,-5.6231,0,-5.6235,-5.6235,-5.6235,-5.6104,-5.61,-5.6097,-5.6093,-5.6097,-5.61,-5.6104,0,0,0,0,0,0,0,0,0,0,0,0,0,-5.6105,-5.6109,-5.6231,-5.6231,-5.6231,-5.6235,-5.6235,-5.6235,-5.6104,-5.61,-5.6096,-5.6092,-5.6096,-5.61,-5.6104,0,0,0,0,0,0,0,0,0,0,0,0,0,-5.614,-5.6109,-5.6231,-5.6166,-5.616,-5.6235,-5.6235,-5.6235,-5.6105,-5.61,-5.6094,-5.609,-5.6095,-5.61,-5.6105,-5.6242,0,0,-5.612,-5.6122,0,0,0,0,0,0,0,0,-5.6138,-5.6145,-5.6175,-5.617,-5.6164,-5.6163,-5.6193,-5.6238,-5.6106,-5.6126,-5.6093,-5.6087,-5.6123,-5.6126,-5.6138,-5.6242,-5.6242,-5.6121,-5.6124,-5.6126,-5.6127,0,0,0,0,0,0,0,-5.6136,-5.6144,-5.6232,-5.6176,-5.6169,-5.6136,-5.6135,-5.6201,-5.6154,-5.6124,-5.6114,-5.6117,-5.6119,-5.6134,-5.6137,-5.6242,-5.6121,-5.6125,-5.6128,-5.613,-5.6458,-5.6463,0,0,0,0,0,0,-5.6143,-5.6143,-5.6232,-5.6232,-5.6138,-5.6142,-5.6141,-5.6169,-5.6153,-5.6146,-5.6121,-5.6111,-5.6128,-5.6132,-5.6137,-5.6296,-5.6126,-5.6131,-5.6134,-5.6452,-5.6459,-5.6465,0,0,0,0,0,0,-5.6141,-5.6152,-5.6232,-5.6185,-5.6193,-5.615,-5.6182,-5.6172,-5.6186,-5.6151,-5.6142,-5.6145,-5.6124,-5.613,-5.6217,-5.6294,-5.6133,-5.6138,-5.6445,-5.6454,-5.6462,-5.6615,0,0,0,0,0,0,-5.6138,-5.6152,-5.6204,-5.6187,-5.6196,-5.6313,-5.6187,-5.6176,-5.6195,-5.6181,-5.6171,-5.6164,-5.612,-5.621,-5.6222,-5.6298,-5.6142,-5.6438,-5.6449,-5.6459,-5.6603,-5.6628,-5.6649,0,0,0,0,0,-5.6134,-5.6247,-5.6208,-5.6219,-5.626,-5.6317,-5.6322,-5.6269,-5.6202,-5.6254,-5.6231,-5.6164,-5.6284,-5.622,-5.6232,-5.6311,-5.6433,-5.6446,-5.6458,-5.6593,-5.6623,-5.6648,0,0,0,0,0,0,-5.6274,-5.6244,-5.62,-5.6311,-5.6318,-5.6295,-5.6358,-5.6303,-5.6329,-5.6315,-5.6248,-5.6247,-5.6344,-5.6336,-5.6265,-5.6443,-5.6346,-5.6362,-5.6444,-5.6473,-5.6495,-5.6495,-5.6146,0,0,0,0,0,-5.6318,-5.6368,-5.6338,-5.644,-5.6445,-5.6402,-5.6425,-5.6384,-5.6388,-5.639,-5.6373,-5.638,-5.6418,-5.6445,-5.6479,-5.6601,-5.6596,-5.6662,-5.6685,-5.6704,-5.6718,-5.6781,-5.681,-5.6507,-5.6507,-5.6506,0,0,-5.641,-5.6399,-5.6434,-5.6468,-5.6468,-5.652,-5.6405,-5.6465,-5.6502,-5.6398,-5.6479,-5.6468,-5.647,-5.6575,-5.6621,-5.6571,-5.6801,-5.672,-5.6736,-5.6739,-5.6797,-5.6826,-5.6851,-5.6515,-5.6514,-5.6512,0,0,-5.6602,-5.66,-5.6684,-5.6686,-5.6688,-5.6658,-5.6679,-5.6664,-5.6653,-5.6733,-5.6656,-5.6699,-5.6768,-5.6772,-5.6783,-5.6978,-5.6917,-5.6991,-5.7111,-5.7173,-5.7197,-5.7218,-5.7286,-5.7311,-5.7005,-5.7005,-5.7006,0,-5.6716,-5.6791,-5.6734,-5.6799,-5.6815,-5.6724,-5.6807,-5.6812,-5.6825,-5.6839,-5.6783,-5.6867,-5.6862,-5.6966,-5.7014,-5.7027,-5.7047,-5.6991,-5.7198,-5.7219,-5.7237,-5.7301,-5.7327,-5.7014,-5.7013,-5.7012,-5.7012,0,-5.693,-5.6983,-5.705,-5.7065,-5.7089,-5.7164,-5.7116,-5.7147,-5.7105,-5.7081,-5.7163,-5.7154,-5.7184,-5.7206,-5.7164,-5.7304,-5.7274,-5.721,-5.7112,-5.7276,-5.7335,-5.7359,-5.7027,-5.7024,-5.7021,-5.7019,0,0,-5.7211,-5.7193,-5.7218,-5.7223,-5.7219,-5.7259,-5.7328,-5.7358,-5.7385,-5.7398,-5.7454,-5.7514,-5.7454,-5.7467,-5.7426,-5.7481,-5.7634,-5.7409,-5.7408,-5.7451,-5.7786,-5.7834,-5.7863,-5.7594,-5.7598,-5.7602,-5.7786,0,-5.7397,-5.7515,-5.7465,-5.7588,-5.7636,-5.755,-5.761,-5.7613,-5.7593,-5.763,-5.7607,-5.765,-5.7569,-5.7576,-5.7627,-5.7605,-5.77,-5.7591,-5.7644,-5.7647,-5.7645,-5.7894,-5.7945,-5.8119,-5.7809,-5.7813,-5.7815,0,-5.763,-5.7652,-5.7779,-5.7765,-5.7783,-5.7839,-5.7861,-5.7898,-5.79,-5.7881,-5.7896,-5.7842,-5.7908,-5.7812,-5.7902,-5.7829,-5.7848,-5.784,-5.7846,-5.7848,-5.774,-5.7902,-5.8173,-5.8199,-5.7852,-5.7849,-5.7846,0,-5.7821,-5.7882,-5.7966,-5.7973,-5.7959,-5.8,-5.7996,-5.7992,-5.8013,-5.8033,-5.8045,-5.8073,-5.8088,-5.811,-5.8065,-5.7999,-5.8161,-5.8061,-5.8147,-5.8148,-5.8184,-5.8182,-5.846,-5.8199,-5.8198,-5.8198,-5.8197,0,-5.8033,-5.8114,-5.8051,-5.8103,-5.8191,-5.8132,-5.8221,-5.8207,-5.8205,-5.8252,-5.818,-5.8225,-5.8162,-5.8202,-5.8167,-5.8246,-5.8254,-5.824,-5.8229,-5.8246,-5.8248,-5.8256,-5.8243,-5.8205,-5.8203,-5.8202,-5.82,0,-5.8261,-5.8222,-5.8307,-5.8287,-5.8284,-5.835,-5.8332,-5.8378,-5.8353,-5.8413,-5.8424,-5.8384,-5.8426,-5.8383,-5.8423,-5.8399,-5.8506,-5.8479,-5.8506,-5.8497,-5.8585,-5.8577,-5.8878,-5.8914,-5.8631,-5.8633,-5.8636,0,-5.8398,-5.8459,-5.8445,-5.8471,-5.8472,-5.8515,-5.8536,-5.8481,-5.8505,-5.8511,-5.8557,-5.8594,-5.8619,-5.8691,-5.8666,-5.8696,-5.8667,-5.8771,-5.8671,-5.8686,-5.8667,-5.8664,-5.8669,-5.8791,-5.8794,-5.8797,-5.8799,0,-5.8646,-5.8624,-5.8656,-5.8683,-5.871,-5.8728,-5.874,-5.8765,-5.8708,-5.8739,-5.8782,-5.8802,-5.8843,-5.8879,-5.8902,-5.8897,-5.8839,-5.8831,-5.8852,-5.8869,-5.8881,-5.8874,-5.8559,-5.8824,-5.8821,-5.882,-5.8818,-5.8817,-5.8832,-5.8881,-5.8879,-5.8917,-5.8921,-5.8934,-5.8976,-5.8956,-5.8991,-5.9019,-5.8985,-5.9037,-5.9036,-5.906,-5.9063,-5.9102,-5.9058,-5.9089,-5.9097,-5.9105,-5.9117,-5.8876,-5.9106,-5.9105,-5.9105,-5.9104,-5.9104,0,-5.9074,-5.9069,-5.9105,-5.9124,-5.9155,-5.9098,-5.9108,-5.9137,-5.9184,-5.9189,-5.9216,-5.9265,-5.93,-5.9278,-5.9307,-5.9343,-5.9317,-5.9353,-5.9349,-5.9349,-5.9156,-5.9134,-5.9373,-5.9373,-5.9373,-5.9373,-5.9373,-5.9373,-5.9204,-5.9284,-5.9261,-5.9342,-5.9335,-5.9386,-5.9396,-5.9408,-5.9411,-5.9469,-5.9498,-5.9483,-5.9477,-5.9505,-5.9535,-5.9527,-5.9541,-5.9586,-5.9569,-5.9389,-5.9362,-5.9337,-5.9316,-5.959,-5.959,-5.9758,-5.976,-5.9761]}]]